Location: Hall+in+Tirol
(47.2830°N, 11.5170°E)
Time: 19:22:29
(UTC+02:00)

Gurwin Techsat 1B - Visible Passes

Search period start: 04 May 2016 00:00
Search period end: 14 May 2016 00:00
Orbit: 811 x 815 km, 98.6° (Epoch: 04 May)

Date Brightness Start Highest point End Pass type
(mag) Time Alt. Az. Time Alt. Az. Time Alt. Az.
04 May 10.2 02:35:57 10° NE 02:40:24 26° E 02:42:56 19° SE visible
04 May 9.0 04:15:28 10° N 04:20:35 48° WNW 04:24:09 19° SW visible
05 May 10.7 02:13:56 10° NE 02:17:21 17° E 02:19:57 12° ESE visible
05 May 8.6 03:52:33 10° N 03:57:53 74° WNW 04:01:10 24° SSW visible
06 May 11.1 01:53:17 10° ENE 01:54:14 10° E 01:55:11 10° E visible
06 May 8.7 03:29:46 10° NNE 03:35:06 74° ESE 03:38:11 26° S visible
06 May 10.2 05:10:49 10° NNW 05:14:30 19° WNW 05:18:10 10° WSW visible
07 May 9.3 03:07:06 10° NNE 03:12:16 48° E 03:15:12 24° SSE visible
07 May 9.8 04:47:31 10° N 04:51:59 28° WNW 04:56:25 10° WSW visible
08 May 10.0 02:44:37 10° NNE 02:49:20 31° E 02:52:13 19° SE visible
08 May 9.3 04:24:25 10° N 04:29:23 41° WNW 04:33:26 15° SW visible
09 May 10.6 02:22:26 10° NE 02:26:19 20° E 02:29:14 14° SE visible
09 May 8.7 04:01:27 10° N 04:06:43 62° WNW 04:10:26 19° SSW visible
10 May 11.0 02:00:53 10° ENE 02:03:14 13° E 02:05:35 10° ESE visible
10 May 8.6 03:38:37 10° NNE 03:43:58 87° ESE 03:47:27 22° SSW visible
11 May 9.1 03:15:54 10° NNE 03:21:09 57° E 03:24:27 22° S visible
11 May 10.0 04:56:33 10° N 05:00:44 24° WNW 05:04:55 10° WSW visible
12 May 9.7 02:53:20 10° NNE 02:58:16 37° E 03:01:27 19° SSE visible
12 May 9.5 04:33:23 10° N 04:38:11 35° WNW 04:42:40 11° SW visible
13 May 10.4 02:31:00 10° NE 02:35:17 24° E 02:38:27 15° SE visible
13 May 8.9 04:10:22 10° N 04:15:32 53° WNW 04:19:40 16° SW visible
